Location: Castle
(40.7167°S, 175.9500°E)
Time: 17:59:02
(UTC+00:00)

Cosmos 2242 Rocket - Pass Details

Date: 04 August 2024
Orbit: 616 x 646 km, 82.5° (Epoch: 18 September)

Event Time Altitude Azimuth Distance (km) Brightness Sun altitude
Exits shadow 17:48:23 31° 242° (WSW) 1,150 4.4 -17.3°
Drops below altitude 10° 17:52:00 10° 192° (SSW) 2,078 6.0 -16.6°
Sets 17:54:30 0° 182° (S) 3,000 7.0 -16.1°
